| time (UTC) | temp C | wind direction | speed KPH | gust KPH | rain 1hr cm | rain 24hr cm | rain mn cm | humidity % | barometer mb |
| 20260504081506 | 2 | 222 | 0.0 | 0.0 | 0.00 | 0.00 | 0.00 | 83 | 1015.9 |
| 20260504044547 | 4 | 218 | 0.0 | 4.8 | 0.00 | 0.00 | 0.00 | 78 | 1015.9 |
| 20260504043052 | 4 | 237 | 0.0 | 3.2 | 0.00 | 0.00 | 0.00 | 79 | 1015.9 |
| 20260504041541 | 4 | 247 | 0.0 | 3.2 | 0.00 | 0.00 | 0.00 | 80 | 1015.6 |
| 20260504040039 | 4 | 227 | 0.0 | 0.0 | 0.00 | 0.00 | 0.00 | 80 | 1015.5 |
| 20260504034538 | 4 | 235 | 0.0 | 0.0 | 0.00 | 0.00 | 0.00 | 79 | 1015.5 |
| 20260504033039 | 4 | 235 | 0.0 | 0.0 | 0.00 | 0.00 | 0.00 | 79 | 1015.3 |
| 20260504031538 | 4 | 235 | 0.0 | 0.0 | 0.00 | 0.00 | 0.00 | 80 | 1015.3 |
| 20260504030036 | 4 | 235 | 0.0 | 0.0 | 0.00 | 0.00 | 0.00 | 78 | 1015.2 |
| 20260504024535 | 5 | 234 | 0.0 | 0.0 | 0.00 | 0.00 | 0.00 | 78 | 1015.2 |
| 20260504023035 | 5 | 234 | 0.0 | 0.0 | 0.00 | 0.00 | 0.00 | 76 | 1015.2 |
| 20260504021533 | 5 | 234 | 0.0 | 0.0 | 0.00 | 0.00 | 0.00 | 74 | 1015.2 |
| 20260504020044 | 6 | 234 | 0.0 | 0.0 | 0.00 | 0.00 | 0.00 | 74 | 1015.2 |
| 20260504014543 | 6 | 236 | 0.0 | 0.0 | 0.00 | 0.00 | 0.00 | 72 | 1015.1 |
| 20260504013040 | 6 | 236 | 0.0 | 0.0 | 0.00 | 0.00 | 0.00 | 70 | 1015.0 |
| 20260504011631 | 7 | 236 | 0.0 | 0.0 | 0.00 | 0.00 | 0.00 | 68 | 1014.8 |
| 20260504010031 | 8 | 236 | 0.0 | 0.0 | 0.00 | 0.00 | 0.00 | 66 | 1014.7 |
| 20260504004534 | 8 | 250 | 0.0 | 0.0 | 0.00 | 0.00 | 0.00 | 63 | 1014.5 |
| 20260504003031 | 10 | 260 | 0.0 | 0.0 | 0.00 | 0.00 | 0.00 | 58 | 1014.4 |
| 20260504001534 | 11 | 241 | 0.0 | 0.0 | 0.00 | 0.00 | 0.00 | 53 | 1014.2 |
| 20260504000029 | 12 | 233 | 0.0 | 4.8 | 0.00 | 0.00 | 0.00 | 51 | 1014.1 |
| 20260503234529 | 13 | 243 | 0.0 | 3.2 | 0.00 | 0.00 | 0.00 | 45 | 1013.9 |
| 20260503233028 | 13 | 264 | 0.0 | 1.6 | 0.00 | 0.00 | 0.00 | 44 | 1013.9 |
| 20260503231528 | 13 | 300 | 0.0 | 16.1 | 0.00 | 0.00 | 0.00 | 41 | 1013.8 |
| 20260503230028 | 14 | 289 | 0.0 | 19.3 | 0.00 | 0.00 | 0.00 | 40 | 1013.7 |
| 20260503224527 | 14 | 279 | 4.8 | 19.3 | 0.00 | 0.00 | 0.00 | 38 | 1013.7 |
| 20260503223025 | 15 | 267 | 0.0 | 17.7 | 0.00 | 0.00 | 0.00 | 40 | 1013.7 |
| 20260503221524 | 15 | 274 | 1.6 | 19.3 | 0.00 | 0.00 | 0.00 | 38 | 1013.7 |
| 20260503220024 | 15 | 273 | 8.0 | 22.5 | 0.00 | 0.00 | 0.00 | 37 | 1013.9 |
| 20260503214522 | 15 | 262 | 12.9 | 29.0 | 0.00 | 0.00 | 0.00 | 38 | 1013.7 |
| 20260503213022 | 15 | 312 | 0.0 | 25.7 | 0.00 | 0.00 | 0.00 | 40 | 1013.7 |
| 20260503211521 | 15 | 255 | 0.0 | 25.7 | 0.00 | 0.00 | 0.00 | 38 | 1013.7 |
| 20260503210019 | 15 | 305 | 1.6 | 25.7 | 0.00 | 0.00 | 0.00 | 37 | 1013.7 |
| 20260503204519 | 15 | 316 | 16.1 | 40.2 | 0.00 | 0.00 | 0.00 | 38 | 1013.7 |
| 20260503203040 | 15 | 276 | 8.0 | 35.4 | 0.00 | 0.00 | 0.00 | 37 | 1013.7 |
| 20260503201516 | 15 | 250 | 9.7 | 29.0 | 0.00 | 0.00 | 0.00 | 39 | 1013.9 |
| 20260503200013 | 13 | 317 | 4.8 | 29.0 | 0.00 | 0.00 | 0.00 | 39 | 1014.1 |
| 20260503194528 | 13 | 301 | 0.0 | 24.1 | 0.00 | 0.00 | 0.00 | 44 | 1014.3 |
| 20260503193011 | 13 | 309 | 0.0 | 32.2 | 0.00 | 0.00 | 0.00 | 41 | 1014.5 |
| 20260503191510 | 13 | 317 | 0.0 | 27.4 | 0.00 | 0.00 | 0.00 | 42 | 1014.6 |
| 20260503190010 | 13 | 325 | 11.3 | 29.0 | 0.00 | 0.00 | 0.00 | 42 | 1014.6 |
| 20260503184517 | 13 | 43 | 12.9 | 33.8 | 0.00 | 0.00 | 0.00 | 45 | 1014.9 |
| 20260503183008 | 13 | 278 | 8.0 | 30.6 | 0.00 | 0.00 | 0.00 | 42 | 1014.8 |
| 20260503181506 | 12 | 301 | 12.9 | 30.6 | 0.00 | 0.00 | 0.00 | 43 | 1014.9 |
| 20260503180005 | 12 | 299 | 8.0 | 27.4 | 0.00 | 0.00 | 0.00 | 43 | 1015.0 |
| 20260503174503 | 12 | 310 | 9.7 | 30.6 | 0.00 | 0.00 | 0.00 | 45 | 1015.1 |
| 20260503173002 | 12 | 279 | 12.9 | 29.0 | 0.00 | 0.00 | 0.00 | 42 | 1015.1 |
| 20260503171605 | 11 | 318 | 19.3 | 35.4 | 0.00 | 0.00 | 0.00 | 43 | 1015.4 |